Location: Buena Vista Lake
(37.6001°N, 119.5170°W)
Time: 12:02:14
(UTC+00:00)

Cosmos 2150 Rocket - Pass Details

Date: 05 August 2024
Orbit: 747 x 804 km, 74.0° (Epoch: 15 September)

Event Time Altitude Azimuth Distance (km) Brightness Sun altitude
Rises 12:19:52 0° 338° (NNW) 3,283 7.4 -9.1°
Reaches altitude 10° 12:22:18 10° 336° (NNW) 2,342 6.6 -8.6°
Maximum altitude 12:27:34 66° 255° (WSW) 842 4.0 -7.7°
Drops below altitude 10° 12:32:42 10° 174° (S) 2,288 6.3 -6.8°
Sets 12:35:03 0° 171° (S) 3,202 7.0 -6.4°
